Weather History for Lakehurst NAS, NJ

Change the Weather History Date:

Tuesday, November 20, 2012

  Actual Average Record
Temperature  
Mean Temperature 42 °F -  
Max Temperature 37 °F 51 °F 68 °F (1998)
Min Temperature 30 °F 36 °F 16 °F (2000)
Degree Days  
Heating Degree Days 24    
Moisture  
Dew Point 35 °F    
Average Humidity 73    
Maximum Humidity 96    
Minimum Humidity 39    
Precipitation  
Precipitation 0.00 in - - ()
Sea Level Pressure  
Sea Level Pressure 30.16 in    
Wind  
Wind Speed 4 mph (NNE)    
Max Wind Speed 8 mph    
Max Gust Speed -    
Averages and records for this station are not official NWS values.
T = Trace of Precipitation, MM = Missing Value Source: NWS Daily Summary

Daily Weather History Graph

Daily Weather History Graph

Search for Another Location

Airport:

Trip Planner

Search our weather history database for the weather conditions in past years. The results will help you decide how hot, cold, wet, or windy it might be!

Date:

Astronomy

Nov. 20, 2012 Rise Set
Actual Time 6:48 AM EST 4:37 PM EST
Civil Twilight 6:19 AM EST 5:06 PM EST
Nautical Twilight 5:46 AM EST 5:39 PM EST
Astronomical Twilight 5:14 AM EST 6:11 PM EST
Moon 12:21 PM EST (11/20) No Moon Set
Length of Visible Light 10h 47m
Length of Day
9h 48m
Waxing Crescent, 51% of the Moon is Illuminated
Nov 20
Waxing Crescent
Nov 28
Full
Dec 6
Last Quarter
Dec 13
New
Dec 20
First Quarter

Hourly Weather History & Observations

Time (EST) Temp. Windchill Dew Point Humidity Pressure Visibility Wind Dir Wind Speed Gust Speed Precip Events Conditions
12:00 AM 46.9 °F - 39.9 °F 77% 30.23 in - ENE 8.1 mph - N/A   Overcast
1:00 AM 46.0 °F 43.9 °F 39.0 °F 76% 30.22 in - NE 4.6 mph - N/A   Overcast
2:00 AM 45.0 °F 43.5 °F 39.0 °F 80% 30.20 in - Variable 3.5 mph - N/A   Overcast
3:00 AM 45.0 °F - 37.9 °F 76% 30.19 in - Calm Calm - N/A   Overcast
3:49 AM 42.8 °F 40.1 °F 37.4 °F 81% 30.19 in - NNW 4.6 mph - N/A   Scattered Clouds
4:00 AM 41.0 °F 39.0 °F 37.0 °F 86% 30.19 in - NW 3.5 mph - N/A   Clear
5:00 AM 37.9 °F 35.5 °F 36.0 °F 93% 30.18 in - North 3.5 mph - N/A   Clear
6:00 AM 37.0 °F 34.5 °F 35.1 °F 93% 30.19 in - NNW 3.5 mph - N/A   Clear
7:00 AM 30.9 °F - 30.0 °F 96% 30.19 in - Calm Calm - N/A   Clear
8:00 AM 39.0 °F 36.8 °F 35.1 °F 86% 30.18 in - NE 3.5 mph - N/A   Clear
9:00 AM 43.0 °F - 36.0 °F 76% 30.18 in - Calm Calm - N/A   Clear
10:00 AM 46.9 °F - 36.0 °F 66% 30.18 in - Calm Calm - N/A   Clear
11:00 AM 48.9 °F - 35.1 °F 59% 30.16 in - ENE 8.1 mph - N/A   Clear
12:00 PM 51.1 °F - 33.1 °F 50% 30.13 in - NE 4.6 mph - N/A   Clear
1:00 PM 52.0 °F - 32.0 °F 47% 30.12 in - North 3.5 mph - N/A   Clear
2:00 PM 53.1 °F - 30.0 °F 41% 30.10 in - Variable 4.6 mph - N/A   Clear
3:00 PM 51.1 °F - 27.0 °F 39% 30.11 in - NNE 3.5 mph - N/A   Clear
4:00 PM 48.0 °F - 34.0 °F 58% 30.11 in - East 3.5 mph - N/A   Clear
6:00 PM 43.0 °F - 33.1 °F 68% 30.12 in - Calm Calm - N/A   Clear
7:00 PM 39.9 °F - 35.1 °F 83% 30.13 in - Calm Calm - N/A   Clear
8:00 PM 39.9 °F - 34.0 °F 79% 30.12 in - Calm Calm - N/A   Clear
9:00 PM 37.9 °F - 34.0 °F 86% 30.13 in - Calm Calm - N/A   Clear
10:00 PM 42.1 °F 40.2 °F 35.1 °F 76% 30.14 in - North 3.5 mph - N/A   Clear
11:00 PM 43.0 °F 41.3 °F 36.0 °F 76% 30.13 in - North 3.5 mph - N/A   Clear